Regional Weather Roundup
Issued by NWS

Home | Current Version | Previous Version | Text Only | Print | Product List | Glossary On
Versions: 1 2 3 4 5 6 7 8 9 10 11 12 13 14 15 16 17 18 19 20 21 22 23 24 25 26 27 28 29 30 31 32 33 34 35 36 37 38 39 40 41 42 43 44 45 46 47 48 49 50
000
ASUS44 KJAN 030010
RWRMS

MISSISSIPPI HOURLY WEATHER ROUNDUP
NATIONAL WEATHER SERVICE JACKSON MS
700 PM CDT MON MAY 02 2016

NOTE: "FAIR: INDICATES FEW OR NO CLOUDS BELOW 12,000 FEET WITH NO
SIGNIFICANT WEATHER AND/OR OBSTRUCTIONS TO VISIBILITY.

MSZ001>002-007>008-010>013-018>021-025>028-034>036-030100-
NORTHWEST MISSISSIPPI

CITY           SKY/WX    TMP DP  RH WIND       PRES   REMARKS
BATESVILLE     CLOUDY    62  60  92 CALM      29.96R
CLEVELAND      CLOUDY    63  63 100 NW5       29.97R
GREENWOOD      CLOUDY    64  59  83 VRB3      29.97R
6HR MIN TEMP:  64; 6HR MAX TEMP:  69; 6HR PCP: TRACE;

GREENVILLE     CLOUDY    64  59  83 NW9       29.97R
6HR MIN TEMP:  61; 6HR MAX TEMP:  66; 6HR PCP:  0.03;

OLIVE BRANCH   CLOUDY    63  61  94 NW3       29.95S
OXFORD         CLOUDY    59  57  94 NW5       29.97R
TUNICA         CLOUDY    63  55  77 NW10      29.97R
WINONA         CLOUDY    65  62  92 CALM      29.94R
$$

MSZ003>006-009-014>017-022>024-029>033-037>039-030100-
NORTHEAST MISSISSIPPI

CITY           SKY/WX    TMP DP  RH WIND       PRES   REMARKS
COLUMBUS AFB   NOT AVBL
CORINTH        CLOUDY    63  59  88 NW8G16    29.94R
GOLDN TRIANGLE PTCLDY    72  64  78 NW5       29.91S
STARKVILLE     FAIR      68  64  88 CALM      29.91R
TUPELO         CLOUDY    65  60  84 W7        29.94R
6HR MIN TEMP:  64; 6HR MAX TEMP:  68;

$$

MSZ040-058-030100-
CENTRAL MISSISSIPPI

CITY           SKY/WX    TMP DP  RH WIND       PRES   REMARKS
JACKSON INTL   CLOUDY    72  67  84 CALM      29.94R
6HR MIN TEMP:  69; 6HR MAX TEMP:  75; 6HR PCP:  0.33;

JACKSON HAWKNS CLOUDY    71  65  81 NW5       29.94R
6HR MIN TEMP:  67; 6HR MAX TEMP:  75; 6HR PCP:  0.11;

MADISON        MOCLDY    68  63  83 CALM      29.94R
MERIDIAN KEY   CLOUDY    72  68  87 CALM      29.92F
6HR MIN TEMP:  72; 6HR MAX TEMP:  79; 6HR PCP:  0.01;

MERIDIAN NAS   CLOUDY    71  67  87 CALM      29.93S
6HR MIN TEMP:  69; 6HR MAX TEMP:  80; 6HR PCP:  0.15;

VICKSBURG TVR  MOCLDY    69  64  84 N10       29.97R
6HR MIN TEMP:  66; 6HR MAX TEMP:  72; 6HR PCP:  0.01;

VICKSBURG VKS  CLOUDY    70  66  88 NW7       29.95R
$$

MSZ059>079-030100-
SOUTH MISSISSIPPI

CITY           SKY/WX    TMP DP  RH WIND       PRES   REMARKS
BROOKHAVEN     FAIR     N/A N/A N/A N5        29.94S
COLUMBIA       FAIR      75  68  78 CALM      29.96R
HATTIESBURG    CLOUDY    75  68  78 CALM      29.92R
6HR MIN TEMP:  75; 6HR MAX TEMP:  82; 6HR PCP: TRACE;

MCCOMB         CLOUDY    75  68  78 N7        29.93R
6HR MIN TEMP:  74; 6HR MAX TEMP:  77;

NATCHEZ        CLOUDY    68  64  88 N6        29.94S
6HR MIN TEMP:  66; 6HR MAX TEMP:  73;

PINE BELT      PTCLDY    73  70  88 CALM      29.94R
6HR MIN TEMP:  72; 6HR MAX TEMP:  81; 6HR PCP:  0.18;

$$

MSZ080>082-030100-
COASTAL MISSISSIPPI

CITY           SKY/WX    TMP DP  RH WIND       PRES   REMARKS
BAY ST LOUIS   CLEAR     75  70  83 CALM      29.91S
BILOXI         NOT AVBL
PASCAGOULA     CLOUDY    77  74  90 CALM      29.91S
6HR MIN TEMP:  77; 6HR MAX TEMP:  81; 6HR PCP: TRACE;

GULFPORT       CLOUDY    76  69  79 SE3       29.89F
6HR MIN TEMP:  76; 6HR MAX TEMP:  80;

$$




USA.gov is the U.S. government's official web portal to all federal, state and local government web resources and services.